Theta_e
332 327 325 319 310 314 308 311 315 321 321 329 328 325 324 326 322 318 341 348 355 357 360 360 366 366 364 362 361 360 360 359 358 358 358 360 360 360 361 361 360 359 359 359 359 358 357 358 358
323 318 317 314 310 307 310 310 321 324 327 329 331 329 326 323 334 336 340 348 352 358 360 359 365 366 364 362 360 360 360 359 358 357 356 356 358 359 360 359 359 359 358 357 357 356 357 359 359
321 320 315 312 307 306 308 313 323 326 331 328 329 331 335 333 340 340 345 347 346 357 359 363 365 366 365 363 362 362 361 360 359 358 357 355 354 355 356 357 358 359 358 356 357 357 358 359 360
319 321 319 308 303 307 308 315 326 327 330 331 331 313 318 339 344 340 350 354 343 354 357 363 364 365 365 364 362 362 361 360 360 359 358 357 355 355 355 356 358 357 357 357 358 360 361 360 360
314 316 309 307 305 309 309 315 329 327 328 319 312 310 312 337 340 341 356 354 351 356 357 358 362 362 363 362 361 361 361 361 360 359 359 357 357 357 357 355 356 357 359 360 361 361 361 361 360
311 310 306 301 303 306 307 312 324 318 315 313 310 309 313 341 338 350 357 355 357 357 358 357 361 361 360 360 359 359 359 359 359 359 359 359 359 359 359 358 357 356 357 358 361 362 361 360 359
308 308 301 300 302 303 306 311 323 312 310 309 311 308 313 333 341 350 352 356 355 350 343 344 348 359 359 360 360 360 359 358 357 357 358 358 359 360 360 360 359 359 360 359 359 361 361 360 359
307 307 300 300 301 303 306 310 313 313 309 312 311 308 313 319 345 338 341 338 337 338 340 341 346 345 345 344 351 356 354 355 357 357 357 356 356 358 359 358 358 359 360 359 359 358 358 359 358
306 305 301 301 301 304 306 310 308 309 309 307 309 309 316 336 341 334 333 332 331 331 334 336 336 337 338 337 340 344 345 346 348 347 349 347 346 347 351 354 356 358 359 359 359 358 358 358 358
307 305 301 304 305 305 306 307 307 307 307 308 313 318 328 341 336 334 330 326 325 325 328 331 335 332 333 332 337 339 338 341 342 343 345 343 345 346 346 348 352 355 356 358 358 358 358 358 352
303 304 303 305 305 307 306 305 306 307 305 310 312 320 333 338 333 330 326 324 323 326 328 330 334 336 331 331 333 334 336 337 336 340 342 342 343 344 343 344 344 347 352 354 353 355 354 352 353
303 303 305 305 306 305 305 306 306 306 306 310 316 324 332 333 329 325 324 321 323 326 328 330 332 333 335 331 330 331 330 332 331 336 340 339 337 339 341 340 343 344 345 349 351 350 353 352 354
304 304 304 304 305 305 306 304 305 306 306 308 316 323 326 325 325 325 325 325 326 327 329 330 333 334 334 333 332 331 331 331 334 334 337 338 337 338 338 339 340 342 344 344 346 350 353 353 353
304 303 303 305 304 305 305 304 306 308 309 310 316 319 323 324 324 324 324 326 327 328 329 331 332 334 334 333 334 331 332 333 333 334 336 338 338 338 337 337 337 338 340 344 345 345 348 353 354
303 303 305 304 303 303 304 302 304 309 307 311 315 318 321 323 323 323 325 325 327 328 329 331 331 332 332 331 331 329 329 330 331 333 336 337 338 338 337 335 335 336 338 340 343 346 346 348 350
302 302 300 304 303 304 303 300 306 310 308 308 314 317 320 321 322 323 326 327 328 328 328 329 328 330 331 331 329 327 327 328 329 331 333 333 335 336 333 332 333 335 335 336 338 342 342 344 343
301 298 299 300 305 303 304 300 306 310 308 306 314 317 318 319 322 325 327 327 327 328 328 328 329 327 329 329 328 327 328 326 326 327 329 331 332 331 330 328 331 334 332 333 334 338 343 341 341
297 298 298 299 302 305 303 302 306 308 306 308 314 317 317 318 320 324 326 327 328 327 329 329 328 328 328 327 327 324 323 323 324 324 324 327 328 330 331 329 329 330 329 332 331 331 339 340 340
300 300 298 299 301 303 301 302 304 307 309 310 313 314 316 317 320 325 326 326 326 328 327 326 326 327 325 322 322 321 319 321 321 322 325 325 325 326 327 324 326 326 325 329 332 328 332 336 341
301 299 298 299 302 303 301 301 304 306 305 311 313 314 315 317 321 321 321 320 319 320 321 322 322 324 324 322 323 323 322 321 322 323 325 325 324 325 323 325 323 325 325 326 330 328 324 331 339
299 298 298 298 299 302 300 299 301 305 308 310 312 314 316 317 317 316 316 317 318 319 320 319 321 321 323 323 322 324 323 322 319 320 320 322 323 323 323 324 323 324 326 323 326 327 322 323 334
297 300 299 298 297 294 298 292 299 302 304 307 309 311 311 311 312 313 312 313 315 317 319 320 320 320 320 321 320 322 320 317 319 319 320 321 322 322 322 323 324 323 323 323 323 325 323 323 324
299 301 299 298 297 296 295 293 297 302 301 304 307 308 308 310 310 310 310 312 313 315 316 318 320 320 320 320 321 319 318 316 317 317 319 320 321 321 320 321 322 321 320 322 321 322 319 325 324
301 299 297 297 296 291 293 294 294 298 302 305 307 307 308 309 309 309 311 312 313 314 315 316 318 318 319 318 318 317 315 314 312 312 311 311 312 315 318 320 321 321 319 318 319 320 319 318 318
301 300 294 291 291 289 294 293 296 301 303 307 307 308 308 308 308 308 310 310 312 314 314 314 315 315 317 316 316 314 314 314 312 311 310 310 310 311 316 318 318 317 318 318 317 318 317 317 317
297 298 293 285 287 290 292 291 296 301 304 306 307 308 308 307 307 308 309 310 311 312 313 312 311 311 313 314 314 313 313 310 310 311 310 309 310 313 316 316 316 317 317 317 315 316 315 315 315
297 296 297 292 290 289 293 294 298 302 303 304 305 306 307 307 307 308 310 310 310 311 311 311 310 310 310 311 312 312 311 312 310 311 312 311 313 313 314 314 313 313 315 315 313 312 311 312 312
300 299 293 295 286 284 289 290 294 297 300 303 305 306 307 307 308 309 309 309 310 311 311 310 310 308 309 310 309 309 310 311 309 310 310 312 312 314 313 310 310 311 312 311 310 310 309 308 309
297 295 294 294 292 287 285 290 298 299 300 301 303 306 307 307 307 308 308 309 310 310 309 308 307 307 307 307 308 308 309 308 310 310 309 310 312 309 308 308 308 309 309 309 307 307 306 306 307
298 295 295 293 288 291 290 290 301 302 303 304 304 305 305 307 308 308 308 309 309 308 307 306 307 306 306 307 307 308 309 308 308 308 308 307 307 307 307 307 307 306 306 306 304 304 305 304 305
Wind_Speed
1 6 4 4 2 2 3 5 1 7 6 0 7 1 2 1 1 6 3 7 7 5 6 7 9 10 9 8 7 7 7 8 8 8 9 9 8 8 8 7 7 7 7 6 6 6 5 4 3
5 5 4 1 3 9 5 2 9 4 4 8 4 1 1 4 1 4 5 6 5 4 6 7 9 10 11 9 7 8 8 8 8 7 6 5 5 5 5 6 6 6 6 6 7 7 7 6 6
7 2 3 2 3 8 7 3 7 4 8 8 1 1 2 4 6 5 2 3 3 7 6 8 10 11 11 10 8 8 8 8 7 6 5 4 3 1 1 3 5 7 7 8 8 8 8 8 8
3 3 2 4 5 2 1 4 7 12 7 5 2 2 4 10 5 5 6 6 4 8 9 10 12 11 10 10 9 8 8 8 7 5 4 3 1 0 2 4 5 7 8 9 10 9 9 9 9
2 1 4 3 2 3 2 3 9 13 8 7 3 4 5 11 12 9 10 9 12 10 10 12 11 11 10 10 10 10 9 8 6 5 4 3 3 3 4 5 7 9 10 11 11 11 10 10 10
2 1 5 5 2 3 2 4 7 5 4 5 4 1 7 10 9 9 10 14 14 12 11 11 11 11 11 10 9 9 7 6 5 5 5 5 5 6 6 8 9 10 11 12 12 11 9 11 11
2 2 5 5 6 6 4 7 8 8 8 5 4 3 5 12 8 10 12 13 14 14 11 9 10 12 12 12 9 8 6 5 4 2 1 3 6 7 8 9 10 12 12 13 13 13 12 12 12
3 2 5 3 7 6 2 5 6 10 8 3 3 2 6 5 10 14 15 14 14 12 11 11 10 12 11 11 14 12 12 11 9 9 8 7 8 8 10 10 12 13 14 14 14 15 14 14 13
2 2 4 5 7 4 3 7 4 1 7 3 3 0 4 11 12 13 13 13 13 11 11 11 12 12 11 12 12 12 14 14 10 9 10 7 6 8 10 9 12 15 16 15 16 16 15 14 15
1 2 5 2 3 6 3 3 7 5 6 4 5 5 6 12 11 12 12 12 13 13 13 12 11 12 11 9 9 9 9 8 8 8 8 7 8 8 11 12 13 15 17 18 17 16 15 14 11
2 2 4 4 2 6 8 5 2 12 3 7 13 11 9 12 11 11 12 13 13 12 11 11 9 9 10 9 6 5 4 4 5 8 8 8 8 7 6 6 7 8 7 9 10 11 10 13 10
2 2 2 4 5 5 6 6 8 9 7 8 4 10 8 10 10 10 12 12 12 12 11 10 10 9 11 7 7 6 6 6 7 8 9 7 6 7 8 7 9 9 7 9 10 8 10 12 13
2 3 3 5 5 5 7 6 8 13 15 5 10 10 11 11 13 11 10 11 11 11 10 10 8 10 9 9 7 8 8 8 8 8 10 9 9 8 8 8 9 10 10 10 10 10 10 11 13
4 7 5 7 4 4 6 6 1 10 15 7 13 11 12 13 12 10 10 10 9 8 7 6 8 8 9 8 9 7 7 8 8 8 9 11 9 9 9 9 9 9 10 11 11 11 11 11 11
5 7 7 10 4 3 0 5 9 13 8 10 11 12 13 14 11 10 8 9 7 5 3 5 5 7 6 6 6 5 6 6 7 7 9 10 10 10 12 10 10 10 11 14 12 13 12 12 11
3 2 3 9 6 4 6 9 8 14 7 9 11 12 14 11 10 9 8 8 5 5 7 8 8 10 10 10 8 7 6 6 6 6 6 10 11 11 11 10 10 12 12 11 12 12 12 12 12
3 5 6 3 9 1 4 2 13 13 5 11 12 14 13 12 10 8 8 6 7 9 9 10 10 12 13 11 8 8 8 7 7 6 6 9 9 10 8 8 10 13 11 11 9 12 13 13 13
4 5 5 4 6 11 5 7 11 14 2 11 13 14 13 11 8 7 7 6 8 9 8 9 9 11 10 7 7 7 8 8 7 8 8 10 9 11 10 9 11 12 11 11 10 12 12 12 13
6 6 5 3 3 5 7 8 13 10 8 11 13 13 12 10 6 7 6 6 5 7 7 9 9 10 8 8 8 8 9 9 9 9 12 12 12 12 11 10 10 9 10 14 14 9 13 9 10
6 6 4 5 5 3 3 8 8 9 5 8 13 13 11 11 10 7 6 6 6 6 7 8 8 8 7 6 6 4 7 6 8 8 11 12 14 14 13 13 12 11 9 12 13 11 8 6 8
3 3 2 2 4 5 5 3 4 6 7 8 8 9 10 11 10 6 5 5 6 6 7 6 7 8 7 8 7 6 7 7 8 9 10 12 14 15 15 15 13 12 9 8 11 11 11 6 8
3 3 3 3 3 4 2 2 3 5 6 7 9 9 9 7 6 5 4 5 5 6 6 6 7 9 7 8 7 8 9 10 9 10 10 12 14 15 15 15 14 14 11 11 10 9 7 8 7
3 2 3 1 3 2 4 5 6 9 10 12 11 9 5 4 3 3 3 3 4 5 6 6 7 8 6 7 7 7 10 10 10 11 14 14 14 16 15 14 14 13 10 12 10 11 8 6 5
8 2 3 2 2 4 4 3 7 11 16 14 12 9 6 4 3 1 1 2 3 5 6 6 6 7 7 8 9 10 13 14 12 12 13 13 13 13 15 15 13 12 12 11 10 9 7 5 5
2 2 4 3 3 3 3 4 4 13 7 15 15 11 7 5 4 3 2 4 5 7 7 6 7 11 10 11 11 12 14 14 15 14 13 16 14 13 14 16 13 10 11 10 9 10 7 7 5
3 2 3 5 5 5 3 5 2 1 2 3 5 9 8 6 5 3 3 5 6 6 8 11 14 16 15 16 15 14 15 11 12 14 14 14 13 12 15 14 12 12 11 8 7 6 5 6 5
4 2 2 2 1 3 2 2 4 1 4 4 6 7 7 5 3 3 4 4 6 8 12 15 17 18 18 18 14 16 15 14 14 16 15 12 14 12 15 12 10 10 9 7 7 5 5 5 4
2 5 3 1 4 4 4 4 4 0 3 3 5 9 5 2 3 4 4 6 8 11 13 15 16 18 18 18 16 16 16 14 12 14 14 15 15 15 11 9 8 7 6 7 6 4 4 3 3
1 2 5 2 2 4 4 1 2 4 6 8 10 4 2 4 6 6 6 6 9 11 13 16 17 18 18 17 17 17 15 13 15 12 12 11 12 8 8 7 7 5 5 6 5 4 5 4 3
2 3 2 2 3 0 2 5 3 2 4 4 3 2 4 6 8 8 8 8 10 13 15 17 17 17 17 17 16 16 13 13 11 11 9 8 8 6 8 8 6 6 6 6 6 5 4 5 5
Wind_Direction
103 164 158 191 197 141 108 91 88 127 165 180 138 212 359 53 6 90 33 65 72 78 94 95 94 92 82 85 83 71 74 77 77 94 106 113 118 124 132 141 156 170 179 192 207 217 229 240 244
134 141 195 199 113 143 126 53 135 126 157 122 88 7 128 56 9 62 45 56 48 114 129 119 99 98 96 73 65 67 63 60 69 73 74 90 112 133 148 156 170 190 201 210 215 219 234 247 254
157 223 287 57 100 129 138 109 131 96 135 155 131 260 40 34 56 56 59 102 120 127 118 93 84 89 84 86 77 70 68 63 52 50 64 68 64 66 191 211 213 214 217 220 229 233 233 236 244
167 165 107 105 99 162 283 128 127 126 135 152 229 123 104 33 51 82 51 33 76 127 115 104 87 79 87 83 77 71 63 52 49 48 38 25 12 349 278 269 264 258 250 241 236 236 238 240 239
62 119 87 69 15 292 312 161 157 137 144 168 177 111 80 57 102 77 63 83 97 101 109 97 91 89 85 79 77 68 55 45 39 30 16 346 309 281 265 255 255 257 262 260 246 235 236 239 240
117 308 125 133 201 275 275 161 141 123 185 165 140 69 76 111 102 65 85 91 101 106 104 104 100 87 75 72 68 67 69 71 47 25 2 338 315 293 272 268 266 261 258 258 266 271 252 238 239
113 102 107 155 187 190 210 145 179 132 139 129 116 91 89 91 89 85 83 89 92 89 93 88 84 89 78 59 59 77 78 65 63 53 331 304 291 274 269 260 260 261 256 253 255 257 260 256 246
93 92 139 178 182 169 160 128 140 157 133 82 349 151 136 106 111 97 92 87 81 66 56 59 65 70 63 63 51 53 49 40 34 18 358 336 310 287 280 274 248 254 258 256 254 255 254 255 258
166 125 144 143 177 156 172 156 105 35 115 69 0 46 80 123 125 108 100 95 84 70 63 58 55 56 58 48 41 41 38 32 21 14 4 335 340 321 301 302 285 272 258 252 252 253 255 258 259
59 127 164 169 141 153 124 119 119 139 135 85 119 104 119 148 137 125 118 96 82 75 70 67 61 62 67 60 51 50 47 41 34 20 5 354 340 324 312 295 286 273 266 261 253 250 251 249 259
109 99 156 147 123 135 137 121 68 139 165 176 171 165 148 151 137 117 100 91 91 88 75 63 68 71 63 60 53 46 42 30 27 23 11 350 336 339 325 312 306 300 272 268 255 249 241 245 246
141 73 142 108 126 124 139 115 115 35 350 267 208 134 125 133 117 109 108 105 100 83 73 67 51 55 49 45 39 29 23 14 11 10 4 357 338 338 334 322 316 299 292 282 267 261 253 251 247
83 116 64 55 82 79 116 113 107 27 345 277 131 101 111 112 114 106 105 102 99 78 63 45 35 40 36 34 21 17 11 11 358 1 0 352 337 335 330 325 318 311 298 286 277 265 256 247 246
76 83 62 24 49 70 126 93 111 359 335 165 139 111 107 111 122 124 117 99 82 79 65 38 41 35 31 29 18 10 8 358 352 354 355 348 337 333 328 322 320 312 310 300 284 276 268 256 250
107 106 64 30 350 59 25 101 52 347 343 160 148 128 121 130 125 99 100 112 123 113 96 55 50 37 33 23 13 12 5 355 351 355 355 344 339 343 336 329 324 318 316 304 290 277 267 260 247
68 84 132 28 359 52 223 168 45 356 333 179 164 147 140 119 108 108 127 127 124 97 58 38 26 22 17 15 10 5 8 358 353 353 349 349 345 348 341 331 326 327 312 314 304 284 268 259 256
47 138 138 108 29 302 1 67 355 355 310 172 168 155 137 122 109 122 136 121 79 51 35 28 23 18 5 358 355 358 2 360 0 353 348 354 352 344 349 328 321 329 317 311 300 289 270 262 254
155 138 105 105 21 46 59 29 4 8 13 154 152 142 139 126 116 132 117 81 56 42 34 24 14 6 353 347 350 354 349 353 346 347 351 348 346 345 341 334 332 325 320 314 317 303 278 255 263
130 136 119 94 27 79 54 35 15 22 77 133 141 141 132 122 122 122 95 59 54 40 29 20 -0 357 357 356 345 340 341 337 339 340 339 345 348 349 340 335 335 325 313 318 315 315 290 264 253
116 123 95 113 100 92 114 59 35 37 68 139 143 140 134 132 137 122 88 69 50 38 23 9 357 350 350 338 325 314 315 310 314 314 324 333 339 335 333 335 333 330 319 321 324 334 311 272 248
83 120 157 87 125 87 154 106 45 54 93 121 125 128 132 139 133 112 83 44 23 9 351 339 340 332 322 326 307 298 292 282 302 322 324 328 327 327 326 326 329 328 330 319 327 329 330 287 293
159 179 163 160 217 294 231 291 160 150 145 160 155 157 142 126 109 82 41 16 2 349 343 338 333 327 320 326 311 305 302 303 311 304 307 308 310 313 316 316 320 323 325 322 320 327 321 311 303
94 97 43 47 180 236 175 253 121 173 195 190 187 177 158 133 110 80 32 352 336 338 328 323 318 318 317 324 326 312 308 307 305 303 306 304 300 304 305 305 309 313 316 315 318 328 335 290 293
141 118 75 97 161 236 120 299 180 189 211 195 193 193 179 163 141 136 278 321 325 306 321 325 312 307 300 306 304 304 305 304 303 306 306 304 303 298 299 303 306 309 310 313 317 322 321 316 329
102 340 300 241 227 335 120 266 323 208 209 207 196 187 171 168 192 223 261 313 325 323 333 327 315 308 304 297 295 305 306 301 299 306 308 307 301 299 297 300 301 305 303 310 321 318 317 316 316
55 307 289 292 283 315 143 244 86 9 0 128 158 161 169 187 198 249 307 305 308 336 335 334 332 323 314 305 297 307 308 297 299 304 307 299 300 295 295 296 294 303 299 312 314 304 313 311 316
133 197 44 129 95 256 289 213 218 95 134 137 146 177 192 197 211 268 306 303 342 341 343 339 332 324 317 313 307 309 309 298 307 307 306 301 298 294 289 294 305 300 306 327 316 309 317 317 327
349 112 209 172 269 265 200 256 264 27 247 209 236 228 215 221 287 298 324 350 343 342 337 332 328 323 319 315 314 314 313 302 306 309 305 305 305 304 315 301 309 299 342 351 342 344 345 344 355
203 155 64 38 300 288 302 227 58 324 326 301 310 269 283 309 313 318 314 320 332 329 330 333 328 324 322 320 319 317 314 315 312 306 298 295 303 336 319 321 307 7 12 13 14 8 13 21 25
83 100 103 211 175 243 308 274 24 314 322 334 22 355 320 300 295 290 286 304 318 329 335 331 327 324 325 320 320 317 319 323 324 331 344 346 338 332 356 351 1 20 27 27 24 14 8 25 25